This is the latest recevied weather packets stored in our database for station/object AC1IX. If no packets are shown the sender has not sent any weather packets the latest 1 day(s).
| Time | Temp. | Humidity | Pressure | Rain* | Wind** | Luminosity | Snow |
|---|---|---|---|---|---|---|---|
| 1778016380 | 25.56° C | 41% | 1006 hPa | 0 mm | 1.34 m/s, 266° | 58 W/m² | - |
| 1778016079 | 26.11° C | 40% | 1005.8 hPa | 0 mm | 0.89 m/s, 265° | 75 W/m² | - |
| 1778015775 | 26.67° C | 39% | 1005.8 hPa | 0 mm | 0.89 m/s, 309° | 143 W/m² | - |
| 1778015472 | 27.22° C | 38% | 1005.6 hPa | 0 mm | 0.89 m/s, 261° | 243 W/m² | - |
| 1778015169 | 26.67° C | 41% | 1005.7 hPa | 0 mm | 0.45 m/s, 266° | 343 W/m² | - |
| 1778014866 | 27.22° C | 39% | 1005.3 hPa | 0 mm | 0.45 m/s, 290° | 310 W/m² | - |
| 1778014563 | 27.22° C | 40% | 1005.4 hPa | 0 mm | 0.45 m/s, 290° | 321 W/m² | - |
| 1778014261 | 26.67° C | 40% | 1005.4 hPa | 0 mm | 0.45 m/s, 293° | 372 W/m² | - |
| 1778013958 | 26.11° C | 40% | 1005.5 hPa | 0 mm | 0.89 m/s, 288° | 150 W/m² | - |
| 1778013655 | 26.11° C | 40% | 1005.2 hPa | 0 mm | 1.34 m/s, 276° | 166 W/m² | - |
| 1778013352 | 25.56° C | 42% | 1005.3 hPa | 0 mm | 0.45 m/s, 69° | 206 W/m² | - |
| 1778013049 | 25.56° C | 43% | 1005.5 hPa | 0 mm | 1.34 m/s, 302° | 155 W/m² | - |
| 1778012745 | 26.11° C | 44% | 1005.4 hPa | 0 mm | 0.45 m/s, 357° | 177 W/m² | - |
| 1778012441 | 26.67° C | 41% | 1005.4 hPa | 0 mm | 1.34 m/s, 104° | 165 W/m² | - |
| 1778012138 | 26.67° C | 43% | 1005.6 hPa | 0 mm | 0.89 m/s, 285° | 334 W/m² | - |
| 1778011836 | 26.67° C | 42% | 1005.6 hPa | 0 mm | 0.45 m/s, 322° | 163 W/m² | - |
| 1778011533 | 26.67° C | 42% | 1005.3 hPa | 0 mm | 0.45 m/s, 248° | 170 W/m² | - |
| 1778011230 | 26.67° C | 42% | 1005.4 hPa | 0 mm | 0.45 m/s, 251° | 169 W/m² | - |
| 1778010926 | 26.11° C | 42% | 1005.8 hPa | 0 mm | 0.45 m/s, 296° | 165 W/m² | - |
| 1778010624 | 26.11° C | 43% | 1005.8 hPa | 0 mm | 0.45 m/s, 274° | 174 W/m² | - |
| 1778010321 | 25.56° C | 42% | 1005.8 hPa | 0 mm | 0.89 m/s, 308° | 200 W/m² | - |
| 1778010016 | 26.11° C | 43% | 1005.7 hPa | 0 mm | 0.45 m/s, 276° | 137 W/m² | - |
| 1778009714 | 26.67° C | 41% | 1005.6 hPa | 0 mm | 0.89 m/s, 266° | 161 W/m² | - |
| 1778009411 | 26.67° C | 41% | 1005.9 hPa | 0 mm | 0.45 m/s, 287° | 184 W/m² | - |
| 1778009109 | 26.11° C | 41% | 1005.6 hPa | 0 mm | 0.45 m/s, 270° | 184 W/m² | - |
* Rain latest hour (hover to see other rain measurements)
** Current wind speed in m/s (hover to see current wind gust speed)